Location: Carnetin
(48.9010°N, 2.7059°E)
Time: 04:01:50
(UTC+00:00)

USA 229 - Pass Details

Date: 30 May 2022
Orbit: 938 x 1274 km, 63.4° (Epoch: 24 May)

Event Time Altitude Azimuth Distance (km) Brightness Sun altitude
Rises 23:52:01 0° 317° (NW) 3,969 7.4 -19.4°
Reaches altitude 10° 23:54:40 10° 313° (NW) 3,053 6.6 -19.3°
Maximum altitude 00:01:49 57° 238° (WSW) 1,408 4.1 -19.3°
Enters shadow 00:05:51 29° 173° (S) 2,105 4.7 -19.2°
